CZ-2D R/B

Last updated on Fri Dec 19 2025 00:02:17 GMT+0000 (Coordinated Universal Time)

1 28738U 05024B 25352.58405600 .00024281 00000+0 38304-3 0 9991 2 28738 97.3625 0.1856 0004502 344.5552 15.5563 15.53517578127160
UTC large
Height (km)
Speed (km/s)
/
Latitude / Longitude
Inclination (degrees)
Orbital Period (minutes)
Azimuth
Elevation
Range (km)
Doppler Factor

Next 0 passes for location: London (51.5072 / 0.1276)

Sorry there are no passes over London.